Columbus, OH

9:14 AM EST on February 25, 2017 (GMT -0500)
Ohio State University

Weather History for KOSU - May, 2013

Change the Weather History Date:

Wednesday, May 1, 2013

  Actual Average Record
Temperature  
Mean Temperature 66 °F -  
Max Temperature 79 °F 66 °F 84 °F (2007)
Min Temperature 52 °F 44 °F 35 °F (2005)
Growing Degree Days 16 (Base 50)    
Moisture  
Dew Point 54 °F    
Average Humidity 65    
Maximum Humidity 93    
Minimum Humidity 42    
Precipitation  
Precipitation 0.00 in - - ()
Sea Level Pressure  
Sea Level Pressure 30.17 in    
Wind  
Wind Speed 6 mph (East)    
Max Wind Speed 13 mph    
Max Gust Speed 17 mph    
Visibility 10 miles    
Events      
Averages and records for this station are not official NWS values.
T = Trace of Precipitation, MM = Missing Value Source: NWS Daily Summary

Daily Weather History Graph

Daily Weather History Graph

Search for Another Location

Airport or City:

Trip Planner

Search our weather history database for the weather conditions in past years. The results will help you decide how hot, cold, wet, or windy it might be!

Date:

Astronomy

May. 01, 2013 Rise Set
Actual Time 6:31 AM EDT 8:27 PM EDT
Civil Twilight 6:02 AM EDT 8:56 PM EDT
Nautical Twilight 5:26 AM EDT 9:32 PM EDT
Astronomical Twilight 4:48 AM EDT 10:11 PM EDT
Moon 1:36 AM EDT (5/1) 12:08 PM EDT (5/1)
Length of Visible Light 14h 54m
Length of Day
13h 55m
Waning Gibbous, 59% of the Moon is Illuminated
May 1
Waning Gibbous
May 2
Last Quarter
May 9
New
May 18
First Quarter
May 25
Full

Hourly Weather History & Observations

Time (EDT) Temp. Dew Point Humidity Pressure Visibility Wind Dir Wind Speed Gust Speed Precip Events Conditions
1:53 AM 60.1 °F 52.0 °F 75% 30.09 in 10.0 mi Calm Calm - N/A   Clear
2:53 AM 55.0 °F 52.0 °F 89% 30.09 in 10.0 mi East 4.6 mph - N/A   Clear
3:53 AM 57.0 °F 50.0 °F 77% 30.10 in 10.0 mi ESE 4.6 mph - N/A   Clear
4:53 AM 55.9 °F 51.1 °F 84% 30.12 in 10.0 mi East 4.6 mph - N/A   Clear
5:53 AM 55.9 °F 51.1 °F 84% 30.13 in 10.0 mi East 4.6 mph - N/A   Clear
6:53 AM 52.0 °F 50.0 °F 93% 30.16 in 10.0 mi East 5.8 mph - N/A   Clear
7:53 AM 59.0 °F 54.0 °F 83% 30.19 in 10.0 mi ESE 5.8 mph - N/A   Clear
8:53 AM 63.0 °F 55.0 °F 75% 30.21 in 10.0 mi ESE 9.2 mph - N/A   Clear
9:53 AM 66.9 °F 55.9 °F 68% 30.22 in 10.0 mi SE 11.5 mph - N/A   Clear
10:53 AM 68.0 °F 57.0 °F 68% 30.22 in 10.0 mi SSE 9.2 mph - N/A   Clear
11:53 AM 72.0 °F 57.9 °F 61% 30.22 in 10.0 mi ESE 8.1 mph - N/A   Clear
12:53 PM 75.0 °F 59.0 °F 57% 30.20 in 10.0 mi ESE 6.9 mph - N/A   Clear
1:53 PM 77.0 °F 59.0 °F 54% 30.19 in 10.0 mi SE 10.4 mph 16.1 mph N/A   Clear
2:53 PM 78.1 °F 55.9 °F 46% 30.19 in 10.0 mi East 10.4 mph - N/A   Clear
3:53 PM 78.1 °F 57.0 °F 48% 30.18 in 10.0 mi East 12.7 mph 17.3 mph N/A   Clear
4:53 PM 79.0 °F 55.9 °F 45% 30.18 in 10.0 mi East 9.2 mph - N/A   Clear
5:53 PM 79.0 °F 54.0 °F 42% 30.19 in 10.0 mi East 8.1 mph - N/A   Clear
6:53 PM 77.0 °F 54.0 °F 45% 30.18 in 10.0 mi ENE 8.1 mph - N/A   Clear
7:53 PM 73.9 °F 54.0 °F 50% 30.18 in 10.0 mi East 8.1 mph - N/A   Clear
8:53 PM 68.0 °F 54.0 °F 61% 30.19 in 10.0 mi East 6.9 mph - N/A   Clear
9:53 PM 69.1 °F 53.1 °F 57% 30.20 in 10.0 mi East 5.8 mph - N/A   Clear
10:53 PM 66.0 °F 53.1 °F 63% 30.20 in 10.0 mi East 6.9 mph - N/A   Clear
11:53 PM 66.0 °F 53.1 °F 63% 30.19 in 10.0 mi East 9.2 mph - N/A   Clear